Theta_e
314 313 313 312 312 313 314 314 314 315 315 315 316 315 315 311 309 307 309 316 323 322 320 319 318 317 317 316 315 315 314 314 314 314 313 314 313 312 312 311 311 311 311
315 313 312 313 313 314 315 315 315 315 315 316 316 317 316 311 309 307 308 312 319 319 318 316 316 316 316 315 315 314 314 313 313 313 312 312 311 311 311 311 311 310 309
316 315 314 314 315 316 316 316 315 315 314 316 315 317 315 310 308 307 308 305 307 314 314 313 313 314 314 314 313 312 312 312 311 311 310 311 311 310 310 309 309 308 308
318 315 315 315 316 317 316 314 314 313 313 312 313 313 311 308 307 305 306 302 301 301 307 309 309 311 311 312 312 311 310 310 310 310 309 309 309 309 309 308 308 308 307
318 316 314 315 316 316 315 315 314 312 311 310 312 310 311 307 305 304 304 302 299 297 298 304 304 306 308 309 310 310 309 309 308 308 308 308 308 308 307 307 307 306 306
319 316 315 315 316 315 315 314 313 311 311 310 313 307 302 303 302 301 303 302 296 294 293 292 292 295 305 307 308 308 308 308 307 307 306 307 307 306 306 306 306 305 305
318 316 315 315 315 316 316 314 313 312 310 310 306 304 300 296 299 300 301 300 294 291 290 290 288 290 292 302 306 307 307 307 306 305 306 305 305 305 305 305 305 305 305
319 319 317 316 315 315 314 313 312 310 310 311 306 304 300 298 294 295 299 299 293 290 289 288 287 288 289 290 295 304 306 306 306 304 303 304 304 304 304 304 304 303 304
319 319 317 318 316 316 316 315 314 311 310 309 309 306 303 299 294 292 293 297 293 288 288 288 287 287 288 289 294 295 302 304 304 303 302 302 302 303 303 303 302 302 302
319 318 319 318 317 317 317 316 316 315 311 311 308 310 307 304 297 292 290 293 294 291 289 287 287 286 287 287 292 294 299 301 301 300 300 301 301 301 301 301 301 301 301
319 319 319 317 318 317 317 317 314 315 314 315 311 306 304 301 299 297 295 289 292 293 291 288 289 288 287 287 288 291 298 300 298 298 298 298 298 299 300 300 300 300 300
317 318 319 319 319 319 318 317 317 315 316 315 316 312 307 301 298 295 293 290 290 290 291 288 287 287 285 287 289 293 298 299 299 298 297 297 296 296 297 298 298 298 298
317 317 318 318 319 319 319 318 316 316 315 315 315 315 313 310 303 299 301 297 290 290 287 287 287 287 287 287 289 292 296 298 299 297 297 296 295 295 295 295 295 296 296
320 320 318 319 319 319 319 318 318 317 317 316 316 315 316 314 312 308 307 303 293 287 285 287 286 287 288 287 289 292 290 296 298 298 297 295 294 294 293 293 294 294 294
321 319 319 319 319 319 318 318 318 317 317 316 316 316 316 316 314 311 310 308 307 304 291 287 286 288 288 288 289 290 289 292 295 297 297 295 294 294 293 292 292 292 293
320 317 317 318 319 319 318 318 319 319 318 317 317 316 316 317 317 314 311 308 305 307 305 290 288 287 288 288 289 288 287 290 294 296 295 295 294 293 292 292 291 290 290
318 317 317 318 318 318 318 319 319 319 318 317 317 316 315 317 316 315 308 306 303 303 302 286 286 286 286 286 287 286 286 287 288 293 294 294 293 293 292 292 291 290 289
317 317 317 317 317 318 319 318 318 318 317 317 317 316 315 314 313 312 305 304 301 296 295 286 285 285 285 286 287 285 285 286 285 289 292 292 292 293 292 292 292 290 289
315 315 317 317 318 318 319 319 319 319 318 317 317 316 314 312 308 307 301 299 296 291 290 288 285 285 285 285 284 284 284 284 285 287 290 291 292 292 292 292 291 291 290
316 316 317 318 318 318 318 319 318 318 317 316 313 310 309 305 303 302 296 294 291 289 288 286 284 284 284 284 285 283 282 282 283 285 287 287 288 290 292 292 291 291 289
307 309 311 310 309 309 306 307 307 306 305 304 301 299 297 293 293 296 294 290 289 288 287 286 284 283 282 282 282 283 283 282 282 283 282 283 284 283 285 289 289 289 289
297 296 296 295 296 298 295 296 297 299 297 295 294 292 292 288 292 293 293 292 291 287 286 286 285 284 284 284 284 283 283 280 279 281 278 281 282 281 282 283 287 289 289
292 291 292 292 292 292 294 295 293 294 293 293 291 289 288 287 287 288 291 292 291 293 291 288 285 285 284 285 284 282 281 280 277 278 280 278 278 279 281 282 287 288 289
289 288 287 287 287 288 292 293 291 290 290 289 289 288 288 287 287 287 287 286 286 286 287 286 286 286 286 286 285 284 282 277 276 279 278 273 273 274 276 277 285 287 288
286 286 285 285 284 285 291 292 288 286 286 285 286 287 287 286 288 289 286 285 285 285 288 289 289 289 290 289 286 282 279 278 274 274 277 274 274 274 275 273 276 285 287
284 285 285 285 285 286 291 291 287 285 285 284 284 284 285 286 288 290 286 285 284 284 285 285 285 287 288 287 288 283 280 271 268 269 275 275 273 274 272 273 276 277 279
Wind_Speed
4 4 3 3 3 2 2 2 2 1 1 2 3 5 4 4 4 2 2 7 8 11 9 9 8 8 9 9 10 10 10 9 10 11 11 14 13 13 14 15 17 18 18
4 4 4 3 3 3 2 2 2 2 1 1 2 5 5 5 4 4 3 4 12 10 9 8 7 6 7 8 8 9 7 10 9 11 11 11 12 13 14 16 17 18 19
5 5 4 4 4 3 3 3 2 1 1 0 1 5 4 5 5 5 4 3 5 11 9 7 6 6 6 6 7 7 5 8 8 7 9 10 11 12 14 15 16 16 17
6 5 4 4 5 4 3 2 2 2 1 1 1 3 4 4 5 6 4 3 4 4 6 7 5 5 4 4 5 5 4 4 6 9 7 9 11 12 13 14 14 16 16
8 6 4 4 4 3 3 3 3 3 3 2 3 3 3 2 4 3 4 5 4 4 3 6 5 5 2 1 2 4 4 4 4 5 8 8 10 11 12 13 14 14 15
8 6 4 5 4 4 4 3 5 2 2 2 3 3 3 3 4 4 4 4 5 5 4 3 1 3 2 1 1 2 3 5 4 5 4 7 8 9 9 12 13 13 14
7 7 5 5 5 6 6 5 4 5 4 3 4 2 2 2 2 4 5 4 5 6 5 4 3 2 1 4 5 3 3 4 4 3 4 5 6 7 8 11 12 13 14
9 9 8 7 7 5 5 6 5 3 3 5 4 2 2 2 3 5 4 6 6 5 6 7 6 5 4 2 4 2 3 3 4 2 3 4 5 6 8 10 11 11 13
10 10 9 8 7 7 7 7 7 7 4 4 6 5 2 5 2 2 6 6 6 4 5 5 6 6 5 4 4 4 4 4 4 3 1 3 3 5 7 8 10 11 12
11 11 11 10 9 7 9 8 7 7 5 6 3 7 3 4 5 3 3 6 6 8 8 5 5 6 6 5 7 6 6 5 5 4 3 3 4 5 6 7 9 10 11
12 11 11 10 11 9 10 10 7 9 8 7 6 3 4 3 3 4 4 3 4 7 7 7 8 6 5 3 5 6 7 8 6 5 4 2 2 3 5 6 7 9 11
8 10 12 13 12 11 12 10 10 11 11 10 9 8 7 5 5 4 4 4 5 5 8 8 8 6 5 5 6 10 10 11 12 9 7 5 3 1 2 4 6 8 9
8 12 14 12 11 12 12 10 10 12 12 13 13 10 9 9 4 4 5 5 6 3 3 5 7 7 7 7 6 9 10 10 11 11 9 6 4 1 1 2 3 6 8
10 9 12 13 13 12 11 11 10 11 12 11 14 12 10 10 8 9 10 7 5 4 3 6 6 9 8 7 9 13 7 12 14 12 10 8 6 5 3 1 3 4 6
10 10 11 12 12 12 12 12 10 12 10 11 12 12 12 11 9 10 11 11 13 12 8 7 7 10 8 8 10 9 7 9 10 16 14 12 10 7 5 3 1 3 5
9 7 10 11 11 12 13 12 11 11 11 10 10 13 12 11 12 10 11 10 10 13 14 3 0 1 10 8 7 4 4 9 12 15 13 12 10 8 7 7 3 1 4
8 10 11 11 12 13 12 12 13 13 12 13 13 13 16 16 11 9 7 8 9 9 11 3 3 5 3 9 8 5 5 3 4 11 13 13 13 12 10 10 8 4 3
9 11 11 11 12 13 12 13 14 13 14 15 16 15 16 11 12 11 7 9 8 5 5 5 3 4 4 11 10 11 5 3 3 8 13 14 15 15 14 14 12 9 7
8 8 10 11 12 12 12 13 14 14 14 15 14 13 12 10 9 7 5 4 2 3 3 4 3 2 3 6 5 4 5 4 3 10 14 16 17 18 17 14 15 14 9
8 8 9 11 11 11 11 12 12 12 12 10 7 4 5 5 6 4 3 3 5 5 4 4 3 4 3 3 3 5 5 3 5 5 10 11 11 14 16 17 17 15 12
3 3 1 1 2 1 3 4 2 2 3 3 4 5 4 3 3 4 4 7 8 6 6 5 4 3 5 6 11 5 6 3 3 5 4 5 6 5 7 16 14 14 16
5 5 6 5 6 4 7 8 5 4 3 2 1 3 3 2 2 6 8 13 14 10 10 7 6 6 7 6 7 5 6 3 3 3 4 6 7 8 7 8 18 18 18
5 6 5 5 6 5 8 7 7 3 3 2 2 2 1 1 3 3 7 10 10 11 10 7 8 8 7 9 8 6 4 3 3 2 2 3 4 5 5 8 18 20 20
5 5 5 5 5 3 6 6 7 5 4 4 4 1 0 1 3 4 4 4 3 3 5 3 5 5 3 9 8 6 6 5 1 2 3 3 0 2 2 4 13 16 18
3 3 3 4 3 2 6 5 6 5 5 5 3 3 3 4 6 9 6 6 6 3 6 9 10 12 13 15 11 7 5 4 1 2 3 3 2 1 3 2 3 11 12
4 3 4 3 4 4 8 8 5 2 3 2 3 3 0 2 4 10 5 6 6 4 5 5 4 4 5 8 16 10 6 4 4 2 2 4 1 2 4 2 1 2 2
Wind_Direction
178 175 181 172 194 201 209 217 218 232 165 140 129 134 134 125 106 67 38 22 77 90 87 70 65 67 68 62 59 61 63 62 60 70 46 51 56 51 44 37 39 39 30
178 190 195 199 211 209 218 210 213 225 234 130 151 156 149 131 112 92 50 36 71 82 82 69 56 59 64 66 67 66 67 61 55 55 57 53 50 47 41 42 35 31 33
186 189 195 207 215 209 219 221 231 185 265 33 234 157 149 134 132 111 95 67 67 74 82 72 54 49 55 63 71 71 59 71 65 74 54 57 52 48 46 40 37 33 30
191 194 197 210 206 200 197 189 189 216 224 201 155 157 146 143 134 124 113 89 71 67 78 84 65 40 47 73 86 91 76 82 62 56 53 51 49 45 44 40 38 32 29
199 201 198 217 196 187 192 195 206 187 191 179 149 129 134 132 119 107 103 116 109 99 83 96 60 22 13 78 119 116 99 80 67 72 52 53 49 48 41 39 34 32 25
196 187 199 209 182 186 201 193 201 196 174 164 115 86 92 124 142 145 150 152 139 128 129 125 80 332 303 276 187 155 136 103 88 67 56 56 54 48 42 42 33 29 24
190 187 205 199 189 202 205 193 169 189 202 155 112 78 63 111 213 166 167 167 172 168 174 174 187 205 309 325 299 214 180 139 126 107 73 61 51 45 44 42 32 26 26
201 201 203 204 197 200 204 192 177 177 201 179 150 120 187 286 243 202 196 192 195 183 181 192 188 191 199 222 284 258 227 172 148 130 77 61 53 37 37 38 34 27 24
204 203 197 201 198 195 207 206 197 184 196 202 215 155 154 228 158 185 225 210 204 215 212 190 194 191 193 198 215 248 233 190 145 109 38 64 37 37 32 33 33 24 22
208 201 204 199 204 202 209 208 199 201 170 213 215 238 235 148 194 258 257 222 204 214 212 206 198 204 193 191 203 210 227 173 142 126 88 39 28 25 25 24 24 24 16
214 208 202 202 210 208 215 210 193 202 200 212 208 170 206 197 190 190 244 240 229 224 212 205 199 204 211 196 190 217 212 182 153 151 149 130 33 18 18 21 15 20 11
204 210 206 211 214 215 213 210 209 205 209 216 217 211 198 179 195 185 223 214 217 220 206 197 196 188 184 199 203 198 209 194 188 179 176 163 173 87 2 25 20 13 12
210 212 206 212 217 218 217 210 206 214 213 217 221 222 225 225 166 183 218 223 232 217 218 225 201 184 189 189 197 198 199 225 200 196 191 182 192 177 336 6 29 13 13
219 211 205 213 218 217 213 209 214 220 220 225 229 223 228 229 217 216 230 222 250 246 212 231 196 196 191 180 187 190 204 203 214 204 198 202 211 209 210 300 18 11 12
220 206 204 208 216 215 214 213 223 231 223 226 230 231 229 236 225 224 224 217 228 255 233 212 195 196 167 161 187 203 197 195 209 208 209 207 219 219 229 235 330 8 3
211 193 198 209 213 215 217 214 226 231 227 225 229 230 231 236 236 227 231 234 229 246 265 97 122 147 158 148 183 214 215 203 210 209 208 207 225 229 241 252 254 327 356
201 200 203 208 215 217 218 217 226 230 226 230 233 229 232 235 234 226 214 225 234 237 253 104 120 112 170 148 163 180 202 222 240 228 218 223 230 232 234 253 255 262 299
203 207 207 210 215 219 219 218 224 225 227 231 234 233 236 238 237 235 219 231 231 178 191 155 157 157 169 175 186 164 168 207 223 231 229 236 240 237 234 243 247 244 260
210 207 210 217 221 222 224 225 227 231 230 234 239 238 237 239 237 243 228 215 189 125 139 134 136 123 107 173 153 133 162 191 207 224 234 238 243 243 243 241 249 250 243
223 220 216 222 223 225 229 231 231 231 234 237 245 261 271 235 232 236 176 142 124 136 139 146 135 148 127 146 160 171 187 193 201 227 238 235 250 259 256 246 248 251 250
352 9 273 282 13 29 21 338 359 29 340 352 24 36 43 48 111 152 172 161 161 149 169 166 143 155 164 165 180 177 191 177 194 210 222 224 231 239 241 252 238 243 238
51 54 52 51 46 57 24 42 36 57 60 49 29 63 76 108 159 167 167 181 167 171 180 179 177 186 168 171 167 176 184 157 217 181 172 253 207 231 226 226 231 234 239
67 67 60 65 69 53 33 35 41 64 70 68 88 106 158 67 203 169 182 183 189 199 186 179 169 175 160 180 159 159 181 133 207 155 152 253 212 242 227 240 237 238 244
63 67 54 55 78 41 44 62 86 91 90 87 82 113 208 186 206 169 159 144 142 177 154 142 160 159 141 149 158 174 156 145 210 169 158 244 48 269 286 229 243 252 253
90 99 93 82 93 48 35 65 94 92 96 86 96 124 167 186 205 182 154 156 150 138 138 127 114 128 142 164 155 126 152 151 216 260 190 135 279 285 254 299 239 250 242
100 101 84 64 58 54 28 89 94 110 98 95 55 41 56 236 216 189 153 163 157 161 143 117 110 136 154 179 182 184 155 149 140 9 207 171 215 210 314 297 293 253 269